Regional Weather Roundup
Issued by NWS

Home | Current Version | Previous Version | Graphics & Text | Print | Product List | Glossary On
Versions: 1 2 3 4 5 6 7 8 9 10 11 12 13 14 15 16 17 18 19 20 21 22 23 24 25 26 27 28 29 30 31 32 33 34 35 36 37 38 39 40 41 42 43 44 45 46 47 48 49 50
000
ASUS43 KLSX 291207
RWRMO

WEATHER SUMMARY FOR MISSOURI
NATIONAL WEATHER SERVICE SPRINGFIELD MO
700 AM CDT FRI APR 29 2016

NOTE: "FAIR" INDICATES FEW OR NO CLOUDS BELOW 12,000 FEET WITH NO
       SIGNIFICANT WEATHER AND/OR OBSTRUCTIONS TO VISIBILITY.
       CURRENT SKY AND/OR WEATHER CONDITIONS ARE NOT AVAILABLE FOR
       CHILLICOTHE AND FARMINGTON.

MOZ001>031-035>038-043-044-053-054-291300-
...NORTHERN AND WESTERN MISSOURI...

CITY           SKY/WX    TMP DP  RH WIND       PRES   REMARKS
KANSAS CTY INT MOCLDY    47  43  86 NE12      30.01F
6HR MIN TEMP:  47; 6HR MAX TEMP:  51; 6HR PCP:  0.03;

KANSAS C DTWN  PTCLDY    49  43  80 N9        30.02F
6HR MIN TEMP:  49; 6HR MAX TEMP:  53; 6HR PCP: TRACE;

LEE`S SUMMIT   CLEAR     48  44  86 N9        30.02S
6HR MIN TEMP:  47; 6HR MAX TEMP:  51;

ST JOSEPH      CLOUDY    47  40  76 N9        30.05F
6HR MIN TEMP:  46; 6HR MAX TEMP:  50;

CHILLICOTHE      N/A     48  44  86 SW3       30.08R
6HR MIN TEMP:  47; 6HR MAX TEMP:  51;

KIRKSVILLE     CLOUDY    48  45  89 NE16      29.99F
6HR MIN TEMP:  46; 6HR MAX TEMP:  52;


$$
MOZ066>068-077>081-088>096-101>105-291300-
...SOUTHWEST MISSOURI...

CITY           SKY/WX    TMP DP  RH WIND       PRES   REMARKS
SPRINGFIELD    CLOUDY    53  46  77 E13       29.99R
6HR MIN TEMP:  52; 6HR MAX TEMP:  59;

JOPLIN         CLOUDY    52  47  83 E15       29.96R
6HR MIN TEMP:  52; 6HR MAX TEMP:  58;

BRANSON        MOCLDY    54  48  82 NE5       29.98R

$$
MOZ032>034-039>042-045>050-055>058-069>072-291300-
...CENTRAL MISSOURI...

CITY           SKY/WX    TMP DP  RH WIND       PRES   REMARKS
COLUMBIA       CLOUDY    49  46  90 NE10      30.01F
6HR MIN TEMP:  49; 6HR MAX TEMP:  51;

JEFFERSON CITY CLOUDY    51  46  83 NE7       30.02F
6HR MIN TEMP:  50; 6HR MAX TEMP:  52;

ROLLA          CLOUDY    50  46  86 NE10      29.99F
6HR MIN TEMP:  48; 6HR MAX TEMP:  52;

SEDALIA        PTCLDY    49  46  90 NE5       30.02F
6HR MIN TEMP:  49; 6HR MAX TEMP:  52;

WHITEMAN AFB   MOCLDY    48  48 100 NE7       30.01S
WARRENSBURG    CLEAR     46  45  93 NE6       30.01S
OSAGE BEACH    CLOUDY    48  39  71 E3        30.03R

$$
MOZ051-052-059>065-291300-
...EAST CENTRAL MISSOURI...

CITY           SKY/WX    TMP DP  RH WIND       PRES   REMARKS
ST LOUIS INTL  MOCLDY    55  49  80 N7        30.03F
6HR MIN TEMP:  54; 6HR MAX TEMP:  58;

SPIRIT OF STL  PTCLDY    53  49  86 CALM      30.03F
6HR MIN TEMP:  51; 6HR MAX TEMP:  53;

ST CHARLES     CLEAR     53  49  86 N6        30.03F
6HR MIN TEMP:  52; 6HR MAX TEMP:  55;


$$
MOZ072>076-082>087-097>100-106>115-291300-
...SOUTH CENTRAL AND SOUTHEAST MISSOURI...

CITY           SKY/WX    TMP DP  RH WIND       PRES   REMARKS
CAPE GIRARDEAU CLEAR     57  51  80 NE8       30.01R
6HR MIN TEMP:  54; 6HR MAX TEMP:  59;

FARMINGTON     CLEAR     53  48  83 N6        30.04S
6HR MIN TEMP:  50; 6HR MAX TEMP:  56;

POPLAR BLUFF   MOCLDY    57  50  77 NE9       30.00R
6HR MIN TEMP:  56; 6HR MAX TEMP:  59;

WEST PLAINS    CLOUDY    53  47  79 NE10      30.01R
6HR MIN TEMP:  52; 6HR MAX TEMP:  56;


$$



USA.gov is the U.S. government's official web portal to all federal, state and local government web resources and services.